Lexington Weather

Lexington, Massachusetts, USA

34°F
4/16/2021 10:55am 
  • Lexington Conditions: Snow, Fog, Overcast
  • Temperature: 34.0°F / 1.1°CWarmer 0.2°F than last hour.
  • Dew Point: 32.7°FIncreased 0.2°Fsince last hour.
  • Relative Humidity: 95
  • Wind: Wind from N N 2 mph, 10-min avg: 2 mph, gust: 4 mph
  • Barometer: 29.47 inFalling 0.03  inHg/hr Falling Slowly
  • Visibility: ½ mile
  • Snow Today: 1.3 in
  •   

Regional Weather Roundup
for Boston / Norton, MA

        
000
ASUS41 KBOX 160704
RWRBOX

REGIONAL WEATHER ROUNDUP
NATIONAL WEATHER SERVICE BOSTON/NORTON MA
300 AM EDT FRI APR 16 2021

NOTE:  "FAIR" INDICATES FEW OR NO CLOUDS BELOW 12,000 FEET WITH NO 
SIGNIFICANT WEATHER AND/OR OBSTRUCTIONS TO VISIBILITY.

MAZALL-160800-
EASTERN MASSACHUSETTS
  
CITY           SKY/WX    TMP DP  RH WIND       PRES   REMARKS
BOSTON         RAIN      43  43 100 E14       29.68F FOG              
BEVERLY        NOT AVBL                                               
LAWRENCE       RAIN      42  38  85 E12       29.71F FOG              
BEDFORD        LGT RAIN  40  39  97 NE7       29.67F FOG              
BLUE HILL        N/A     36  36 100 E8G18     29.64F WCI  30          
NORWOOD        LGT RAIN  41  36  82 E7        29.67F                  
MARSHFIELD     MIX PCPN  45  41  87 E16G22    29.65F                  
PLYMOUTH       LGT RAIN  42  39  89 NE10      29.61F                  
TAUNTON        LGT RAIN  41  38  89 VRB5      29.63F                  
NEW BEDFORD    CLOUDY    41  39  93 N7        29.60F                  
$$

MAZALL-160800-
CAPE COD AND THE ISLANDS
  
CITY           SKY/WX    TMP DP  RH WIND       PRES   REMARKS
FALMOUTH       CLOUDY    43  43 100 NE14      29.59F                  
HYANNIS        LGT RAIN  45  42  89 NE9       29.58F                  
CHATHAM        RAIN      45  41  86 NE14      29.61F FOG              
PROVINCETOWN   RAIN      44  42  93 E13       29.65F FOG              
NANTUCKET      LGT RAIN  46  44  93 NE13      29.53F                  
MARTHAS VNYRD  RAIN      45  43  93 NE16G25   29.55F FOG              
$$
 
MAZALL-160800-
CENTRAL AND WESTERN MASSACHUSETTS
  
CITY           SKY/WX    TMP DP  RH WIND       PRES   REMARKS
WORCESTER      LGT SNOW  33  31  92 N9        29.65F FOG     WCI  25  
FITCHBURG      LGT SNOW  33  33 100 NW5       29.70F FOG     WCI  29  
ORANGE         LGT SNOW  33  33 100 NE5       29.69F FOG     WCI  29  
SPRINGFIELD    LGT SNOW  33  33  99 N5        29.67F WCI  29          
WESTFIELD      LGT SNOW  34  33  96 N9        29.68F FOG     WCI  27  
NORTH ADAMS    MIX PCPN  35  35 100 CALM      29.67F                  
PITTSFIELD     LGT SNOW  33  32  96 CALM      29.64F FOG              
$$
 
RIZALL-160800-
RHODE ISLAND
  
CITY           SKY/WX    TMP DP  RH WIND       PRES   REMARKS
PROVIDENCE     LGT RAIN  40  38  93 N14       29.64S FOG              
NEWPORT        LGT RAIN  39  37  92 N14       29.59F FOG     WCI  31  
BLOCK ISLAND   LGT RAIN  39  38  96 N13G21    29.60S WCI  31          
SMITHFIELD     LGT RAIN  35  35 100 N10       29.64F FOG     WCI  27  
WESTERLY       LGT RAIN  35  34  96 N12       29.61F WCI  27          
$$
 
CTZALL-160800-
CONNECTICUT
  
CITY           SKY/WX    TMP DP  RH WIND       PRES   REMARKS
BRADLEY INTL   LGT SNOW  35  32  88 N8        29.67F FOG     WCI  29  
HARTFORD       LGT RAIN  37  33  85 N13       29.67F WCI  29          
BRIDGEPORT     LGT RAIN  40  37  89 NW8       29.67F                  
DANBURY        CLOUDY    40  35  83 VRB6      29.68F                  
GROTON         LGT RAIN  36  34  92 N14       29.61F WCI  27          
NEW HAVEN      CLOUDY    40  37  89 NW6       29.66R                  
CHESTER        MIX PCPN  37  37 100 N6G14     29.63F                  
MERIDEN        LGT RAIN  38  34  85 N8        29.66F                  
WILLIMANTIC    LGT RAIN  35  34  96 NE6       29.65F WCI  30          
OXFORD         LGT SNOW  34  34 100 NW6       29.66S FOG     WCI  29  
$$

MEZ002-015-021-024-NHZ003-005-008-011-012-014-VTZ005-008-160800-
NORTHERN NEW ENGLAND
  
CITY           SKY/WX    TMP DP  RH WIND       PRES   REMARKS
PORTLAND ME    CLOUDY    43  35  73 NE12      29.75F                  
BANGOR ME      MOCLDY    39  27  62 N3        29.82R                  
CONCORD NH     CLOUDY    39  35  86 CALM      29.71F                  
MANCHESTER NH  LGT RAIN  41  36  82 N6        29.69S                  
NASHUA NH      RAIN      37  37 100 NW8G18    29.71F WCI  31          
PORTSMOUTH NH  MOCLDY    43  35  72 NE12      29.72F                  
JAFFREY NH     LGT SNOW  33  32  96 CALM      29.68F FOG              
KEENE NH       LGT SNOW  32  32 100 NE5       29.71F FOG     WCI  27  
BURLINGTON VT  LGT RAIN  40  35  83 CALM      29.72S                  
MT. WASHINGTON FOG       18  18 100 E48         N/A  VSB 1/16WCI  -6  
$$

NYZ052-076-160800-
EASTERN NEW YORK
  
CITY           SKY/WX    TMP DP  RH WIND       PRES   REMARKS
ALBANY         LGT SNOW  31  31 100 S3        29.70F FOG              
NEW YORK CITY  LGT RAIN  44  37  76 N12       29.68F                  
$$
 
ANZALL-160800-
MARINE OBSERVATIONS
  
STATION/POSITION TIME  TEMP    WIND        PRES    VSBY  WAVE
                       AIR SEA DIR/SP/G                  HT/PER
                 (UTC) (F)     (DEG/KT/KT) (MB)    (MI)  (FT/S)
BOSTON BUOY      0640   42 44   50/ 12/ 16 1005.0F
BUZZARDS BAY     0600           20/ 21/ 23 1002.8F
NANTUCKET SOUND  0640      47                N/A
MASS BAY-STELLWA 0604   44      90/ 17/ 21 1004.3F  1 3/4  6/11
ISLE OF SHOALS   0600   44      70/ 19/ 23 1005.5F
S OF BLOCK IS    0626      44                N/A           7/ 7
$$

......................KEY.........................
  SKY/WX - SKY CONDITION/PRESENT WEATHER
  TMP    - TEMPERATURE IN FAHRENHEIT
  DWPT   - DEWPOINT IN FAHRENHEIT
  RH     - RELATIVE HUMIDITY IN PERCENT
  WIND   - DIRECTION AND SPEED IN MPH
  PRES   - MEAN SEA LEVEL PRESSURE IN INCHES OF HG
  WCI    - WIND CHILL INDEX
  VSB    - VISIBILITY IN MILES
  HX     - HEAT INDEX
  TC     - TEMPERATURE IN CELSIUS
  VRB    - VARIABLE WIND DIRECTION
  N/A    - NOT AVAILABLE
  
      

Other recent Regional Weather Roundups

Fri Apr 16, 10:05am

Fri Apr 16, 9:04am

Fri Apr 16, 8:04am

Fri Apr 16, 7:04am

Fri Apr 16, 6:04am

Fri Apr 16, 5:04am

Fri Apr 16, 4:04am

Fri Apr 16, 2:04am

Fri Apr 16, 1:04am

Fri Apr 16, 12:04am

Thu Apr 15, 11:05pm

Thu Apr 15, 10:04pm

Thu Apr 15, 9:04pm

Thu Apr 15, 8:04pm

Thu Apr 15, 7:05pm

Thu Apr 15, 6:04pm

Thu Apr 15, 5:05pm

Thu Apr 15, 4:04pm

Thu Apr 15, 3:05pm

Thu Apr 15, 2:04pm

Thu Apr 15, 1:05pm

Thu Apr 15, 12:04pm

Thu Apr 15, 11:04am

Thu Apr 15, 10:05am

Thu Apr 15, 9:04am

Thu Apr 15, 8:04am

Thu Apr 15, 7:04am

Thu Apr 15, 6:04am

Thu Apr 15, 5:04am

Thu Apr 15, 4:04am

Thu Apr 15, 3:04am

Thu Apr 15, 2:04am

Thu Apr 15, 1:04am

Thu Apr 15, 12:04am

Wed Apr 14, 11:04pm

Wed Apr 14, 10:04pm

Wed Apr 14, 9:04pm

Wed Apr 14, 8:04pm

Wed Apr 14, 7:04pm

Wed Apr 14, 6:04pm

Wed Apr 14, 5:05pm

Wed Apr 14, 4:04pm

Wed Apr 14, 3:05pm

Wed Apr 14, 2:04pm

Wed Apr 14, 1:05pm

Wed Apr 14, 12:04pm

Wed Apr 14, 11:04am

Wed Apr 14, 10:04am

Wed Apr 14, 9:04am

Wed Apr 14, 8:04am

Wed Apr 14, 7:04am

Wed Apr 14, 6:04am

Wed Apr 14, 5:04am

Wed Apr 14, 4:04am

Wed Apr 14, 3:04am

Wed Apr 14, 2:04am

Wed Apr 14, 1:04am

Wed Apr 14, 12:04am

Tue Apr 13, 11:04pm

Tue Apr 13, 10:05pm

Tue Apr 13, 9:05pm

Tue Apr 13, 8:05pm

Tue Apr 13, 7:04pm

Tue Apr 13, 6:04pm

Tue Apr 13, 5:05pm

Tue Apr 13, 4:04pm

Tue Apr 13, 3:04pm

Tue Apr 13, 2:05pm

Tue Apr 13, 1:04pm

Tue Apr 13, 12:05pm

Tue Apr 13, 11:05am

Tue Apr 13, 10:04am

Tue Apr 13, 9:04am

Tue Apr 13, 8:04am

Tue Apr 13, 7:04am

Tue Apr 13, 6:04am

Tue Apr 13, 5:04am

Tue Apr 13, 4:04am

Tue Apr 13, 3:04am

Tue Apr 13, 2:04am

Tue Apr 13, 1:04am

Tue Apr 13, 12:05am

Mon Apr 12, 11:04pm

Mon Apr 12, 10:04pm

Mon Apr 12, 9:04pm

Mon Apr 12, 8:04pm

Mon Apr 12, 7:05pm

Mon Apr 12, 6:04pm

Mon Apr 12, 5:04pm

Mon Apr 12, 4:04pm

Mon Apr 12, 3:05pm

Mon Apr 12, 2:04pm

Mon Apr 12, 1:05pm

Mon Apr 12, 12:04pm

Mon Apr 12, 11:04am

Mon Apr 12, 10:04am

Mon Apr 12, 9:04am

Mon Apr 12, 8:04am

Mon Apr 12, 7:04am

Mon Apr 12, 6:04am

Mon Apr 12, 5:04am

Mon Apr 12, 4:04am

Mon Apr 12, 3:04am

Mon Apr 12, 2:04am

Mon Apr 12, 1:05am

Mon Apr 12, 12:04am

Sun Apr 11, 11:04pm

Sun Apr 11, 10:04pm

Sun Apr 11, 9:04pm

Sun Apr 11, 8:04pm

Sun Apr 11, 7:04pm

Sun Apr 11, 6:05pm

Sun Apr 11, 5:05pm

Sun Apr 11, 4:04pm

Sun Apr 11, 3:05pm

Sun Apr 11, 2:05pm

Sun Apr 11, 1:05pm

Sun Apr 11, 12:04pm

Sun Apr 11, 11:05am

Sun Apr 11, 10:05am

Sun Apr 11, 9:04am

Sun Apr 11, 8:04am

Sun Apr 11, 7:04am

Sun Apr 11, 6:04am

Sun Apr 11, 5:04am

Sun Apr 11, 4:04am

Sun Apr 11, 3:04am

Sun Apr 11, 2:04am

Sun Apr 11, 1:05am

Sun Apr 11, 12:04am

Sat Apr 10, 11:05pm

Sat Apr 10, 10:04pm

Sat Apr 10, 9:04pm

Sat Apr 10, 8:04pm

Sat Apr 10, 7:05pm

Sat Apr 10, 6:04pm

Sat Apr 10, 5:04pm

Sat Apr 10, 4:04pm

Sat Apr 10, 3:04pm

Sat Apr 10, 2:05pm

Sat Apr 10, 1:04pm

Sat Apr 10, 12:04pm

Sat Apr 10, 11:04am

Sat Apr 10, 10:04am

Sat Apr 10, 9:04am

Sat Apr 10, 8:04am

Sat Apr 10, 7:04am

Sat Apr 10, 6:04am

Sat Apr 10, 5:04am

Sat Apr 10, 4:04am

Sat Apr 10, 3:04am

Sat Apr 10, 2:04am

Sat Apr 10, 1:05am

Sat Apr 10, 12:04am

Fri Apr 9, 11:04pm

Fri Apr 9, 10:05pm

Fri Apr 9, 9:04pm

Fri Apr 9, 8:05pm

Fri Apr 9, 7:05pm

Fri Apr 9, 6:04pm

Fri Apr 9, 5:04pm

Fri Apr 9, 4:05pm

Fri Apr 9, 3:05pm

Fri Apr 9, 2:04pm

Fri Apr 9, 1:04pm

Fri Apr 9, 12:04pm

Fri Apr 9, 11:05am

Meta data:

ID: c15d65d2-4195-4fa8-8193-29178701d9ac
Link: https://api.weather.gov/products/c15d65d2-4195-4fa8-8193-29178701d9ac